GFSMW_925_temp_072.txt.gz
Temp
28 25 22 20 16 15 13 13 13 13 13 13 13 13 12 12 12 12 12 13 14 16 17 17 18 18 18 18 18 18 18 19 19 19 18 17 17 17 17 16 16 16 16
27 25 21 19 16 15 13 13 13 13 13 13 13 12 13 12 12 13 13 13 14 16 16 17 17 17 17 17 18 18 18 18 18 18 17 14 16 16 16 16 16 16 16
27 25 22 19 16 15 14 13 13 13 13 13 13 12 12 12 12 12 13 14 14 16 16 16 17 17 17 17 17 17 17 17 17 17 17 14 14 15 16 16 16 16 16
27 26 23 20 18 16 15 14 13 13 13 13 13 12 12 12 13 13 14 15 16 16 16 16 16 17 16 16 16 17 16 16 17 16 17 17 17 14 13 15 16 16 16
27 26 24 22 19 17 15 14 14 13 13 14 14 13 13 13 13 14 14 14 15 16 16 16 16 16 16 16 17 16 16 17 16 15 15 16 17 17 16 14 15 15 16
27 27 24 23 20 17 15 15 14 14 14 14 14 14 14 14 13 13 14 13 14 14 15 15 15 16 16 16 16 16 16 17 16 16 15 16 17 17 17 13 15 15 16
28 27 24 23 21 17 15 14 14 14 14 14 14 14 15 14 14 14 14 13 13 13 14 15 14 15 16 16 16 16 16 16 16 15 15 15 16 16 17 16 15 15 16
28 27 25 24 22 19 17 15 14 14 14 13 14 14 14 14 15 14 14 14 14 14 14 14 14 14 16 16 16 15 15 16 16 16 16 15 16 16 16 16 15 12 13
28 27 26 24 23 21 19 17 15 14 13 13 13 14 14 15 15 14 14 15 15 14 14 14 14 15 16 16 16 15 15 15 16 15 16 16 16 16 16 16 15 14 13
29 27 27 24 24 22 20 19 18 17 14 13 13 13 14 14 14 14 15 15 15 14 14 14 14 15 15 16 16 16 15 15 15 15 16 16 16 16 16 15 15 15 13
29 27 27 25 24 23 21 19 19 19 17 14 13 13 13 14 14 15 15 15 15 15 15 14 14 14 15 15 15 15 15 15 16 16 16 15 15 15 15 15 14 13 12
29 28 27 26 25 24 22 20 19 19 19 17 15 14 14 14 14 15 15 15 15 15 15 15 14 14 15 15 15 15 15 15 15 16 16 15 15 15 15 14 14 13 12
29 28 27 26 25 24 23 22 20 19 20 20 18 16 15 14 15 15 15 15 15 15 15 15 15 15 15 15 15 15 15 15 16 16 16 16 16 15 15 13 13 12 12
29 29 28 27 26 25 24 23 21 20 20 20 20 18 17 15 15 15 15 16 16 16 16 15 15 16 15 16 15 15 15 16 16 16 16 16 16 16 15 13 12 12 11
27 28 27 27 27 26 25 24 23 21 21 20 20 20 18 18 17 16 16 16 16 17 17 17 16 16 16 16 16 16 16 16 16 16 16 16 16 16 15 13 12 11 10
24 25 26 26 26 27 26 25 24 23 21 20 20 20 20 19 18 17 17 17 17 16 17 17 17 17 17 17 17 17 17 17 16 16 16 16 16 16 15 14 13 12 11
21 22 23 23 23 24 24 25 25 24 23 21 20 20 20 20 19 18 17 17 17 17 16 16 16 16 16 17 17 17 17 16 16 16 16 16 16 15 14 13 12 11 9
20 20 20 20 20 19 18 19 21 23 24 23 22 21 20 20 20 19 18 18 17 17 16 16 16 16 16 16 16 16 16 16 15 15 15 15 14 13 12 11 9 5 3
20 19 18 17 16 15 15 17 19 21 22 22 23 22 21 20 20 20 19 18 17 17 16 16 16 16 16 16 16 16 16 15 14 14 14 13 12 11 11 9 3 0 -1
19 19 16 14 12 11 13 13 12 11 12 12 13 14 21 21 21 20 19 19 18 17 17 17 15 14 15 15 15 16 15 12 10 8 7 6 6 5 5 4 1 -2 -3
18 17 15 11 8 7 9 8 8 7 7 8 8 8 8 11 15 20 20 19 18 17 13 12 9 9 9 9 10 11 11 9 5 2 1 0 1 1 1 1 -1 -2 -3
14 14 14 10 6 4 5 5 4 5 4 4 4 4 4 4 5 9 10 13 12 10 8 6 4 4 5 4 5 6 6 4 2 -2 -3 -3 -2 -1 -1 -2 -3 -3 -3
11 10 9 8 4 2 2 2 2 3 3 4 1 0 1 1 1 1 3 4 4 3 2 1 -2 -2 -2 -1 0 1 0 0 -2 -3 -4 -4 -4 -5 -5 -5 -5 -5 -5
7 6 6 5 3 1 1 0 0 2 1 1 2 0 -0 -3 -3 -2 -2 -1 0 -0 -1 -2 -3 -4 -4 -3 -4 -4 -5 -5 -5 -5 -5 -5 -5 -5 -5 -6 -6 -6 -5
3 3 2 1 1 -0 -1 -1 -1 0 0 -1 -1 -2 -3 -3 -4 -4 -4 -4 -3 -1 -3 -4 -4 -4 -4 -4 -4 -5 -5 -5 -5 -5 -5 -5 -5 -6 -6 -6 -7 -6 -6
-0 -1 -1 -2 -2 -3 -3 -3 -2 -2 -1 -2 -3 -3 -3 -4 -4 -4 -5 -4 -4 -4 -4 -4 -4 -4 -4 -4 -4 -4 -4 -4 -4 -4 -4 -4 -4 -5 -5 -6 -7 -7 -8

GFSMW_925_temp_075.txt.gz
Temp
21 20 17 17 16 15 14 14 13 13 13 13 13 13 13 13 13 13 14 14 15 15 15 16 16 17 18 18 18 18 18 18 18 17 17 17 17 17 17 16 15 15 15
21 19 15 15 15 14 15 14 13 12 13 13 13 13 12 12 13 12 13 14 15 15 15 15 16 16 17 17 18 18 18 18 18 17 16 14 15 16 16 16 16 16 15
20 19 16 14 14 14 14 13 13 13 13 13 13 13 12 12 12 12 12 13 15 15 15 16 16 16 16 16 17 18 18 18 18 18 17 12 13 14 16 16 16 16 16
21 19 17 14 14 14 14 14 13 13 13 13 13 13 13 12 12 12 12 13 13 15 15 16 16 15 15 16 18 18 18 18 17 16 18 17 16 13 13 15 16 16 16
21 19 18 15 14 15 13 13 13 13 13 13 13 12 12 12 12 12 12 13 14 15 15 16 17 17 17 18 17 17 18 17 17 17 17 17 16 16 14 13 14 15 16
22 20 18 16 15 14 14 13 13 13 13 13 13 13 12 12 12 12 13 13 13 14 15 16 16 17 17 17 17 17 17 17 17 17 16 16 16 15 15 12 13 14 16
22 20 18 17 15 15 15 14 13 13 13 13 13 13 13 13 13 13 13 13 13 14 15 15 16 16 16 16 17 16 16 16 16 15 15 16 16 17 15 16 14 13 16
23 21 19 17 15 15 15 15 14 14 13 13 13 13 13 13 13 13 13 14 14 14 15 15 15 15 15 16 16 17 16 16 16 16 14 15 16 16 16 15 14 12 12
22 21 20 19 16 14 14 14 14 15 13 13 13 14 14 13 13 13 13 14 14 14 14 15 15 15 15 15 16 16 16 15 16 15 15 16 16 16 17 16 15 15 13
23 22 21 19 17 15 14 14 14 14 14 14 13 14 14 14 14 14 13 14 14 14 13 14 14 15 15 15 15 16 16 16 15 15 15 15 15 15 16 16 16 15 14
23 22 21 21 19 17 15 14 14 14 13 13 13 14 14 14 14 14 13 13 14 14 14 14 14 14 14 15 15 14 15 15 15 15 14 15 16 16 15 15 15 14 13
22 22 22 21 19 18 17 16 15 14 14 13 14 14 14 14 14 14 14 14 14 14 14 14 14 14 13 14 14 14 14 14 14 14 14 15 15 16 15 15 14 13 13
22 21 21 21 20 20 18 17 17 17 16 14 13 13 13 14 14 14 14 14 14 14 14 14 14 13 14 14 14 14 14 14 14 14 14 14 14 14 14 14 13 13 13
23 22 20 21 21 20 19 18 18 18 18 15 14 13 13 13 14 14 14 14 14 14 14 14 13 13 13 13 13 14 14 14 14 14 14 14 14 14 14 13 13 13 12
20 20 20 20 20 20 20 19 18 18 18 18 15 14 14 14 13 13 13 14 14 14 14 14 14 14 14 13 13 14 14 14 14 14 14 14 14 14 15 14 14 13 12
18 19 19 18 17 17 16 18 19 18 18 18 18 18 16 14 14 14 14 14 14 14 14 14 14 14 14 14 14 14 14 14 14 14 14 14 14 15 15 15 15 15 13
18 17 16 16 14 14 14 15 17 17 18 18 18 18 19 17 16 15 15 14 14 14 14 15 15 15 14 14 15 15 15 14 14 14 14 14 14 15 15 15 15 15 13
17 15 13 12 10 10 12 12 12 12 12 13 14 17 17 18 17 17 16 15 15 15 15 15 15 15 15 15 15 15 16 15 15 15 15 15 15 15 15 14 13 10 9
14 12 10 8 7 7 9 9 8 9 9 9 8 8 10 12 17 17 17 17 16 16 15 15 15 15 15 15 15 15 16 15 15 14 14 14 14 14 13 13 9 4 1
11 9 7 6 5 4 6 6 6 6 6 6 6 5 6 5 8 10 12 16 16 16 15 15 15 15 15 15 15 15 15 14 13 12 11 10 11 11 11 10 4 -1 -3
9 8 6 4 3 3 4 4 3 4 4 4 3 4 5 5 3 5 8 8 10 14 14 13 10 9 8 9 10 12 13 13 9 6 4 3 4 4 3 3 1 -1 -2
7 6 5 3 2 1 2 2 1 2 2 1 1 0 3 4 3 4 3 4 4 3 2 2 1 1 1 1 3 5 7 4 2 -2 -2 -3 -1 -2 -1 -2 -3 -4 -3
4 4 4 2 1 -0 -1 -0 -0 1 1 0 -1 -2 -2 -2 0 2 2 1 0 -0 -1 -2 -2 -3 -3 -3 -3 -2 -2 -2 -3 -4 -4 -5 -5 -5 -4 -4 -4 -4 -4
2 1 1 0 -1 -2 -2 -2 -1 -0 -0 -1 -2 -3 -3 -4 -3 -3 -3 -2 -1 -2 -2 -3 -3 -4 -4 -4 -5 -5 -5 -5 -5 -5 -5 -5 -5 -5 -5 -5 -5 -5 -5
-0 -1 -1 -2 -2 -3 -3 -3 -2 -1 -1 -2 -3 -4 -4 -4 -4 -4 -4 -4 -4 -3 -3 -4 -4 -4 -4 -5 -4 -4 -5 -5 -5 -5 -5 -5 -6 -6 -7 -7 -7 -7 -7
-3 -3 -3 -3 -3 -4 -4 -4 -3 -3 -3 -3 -4 -4 -4 -4 -5 -5 -5 -5 -5 -5 -4 -4 -4 -4 -4 -4 -4 -4 -4 -4 -4 -5 -6 -6 -6 -6 -7 -8 -9 -9 -8

GFSMW_925_temp_081.txt.gz
Temp
19 16 15 15 15 15 14 13 13 12 13 13 13 14 14 14 14 14 14 14 14 13 14 14 15 15 15 15 16 16 16 15 15 14 12 12 13 13 13 14 13 13 13
14 14 14 14 13 13 14 13 13 12 13 13 13 13 14 14 14 14 14 14 13 13 14 14 14 15 14 15 16 16 16 15 15 14 13 11 12 12 13 13 14 14 14
15 14 15 14 13 13 12 12 13 12 13 13 13 13 13 13 13 14 13 14 14 14 13 14 14 14 14 14 15 16 16 16 15 16 15 11 12 12 13 13 13 14 14
17 15 15 15 13 13 12 12 13 13 13 13 13 13 13 13 13 13 13 13 13 13 13 14 14 15 15 15 16 16 16 16 15 15 16 17 15 12 12 13 13 14 14
17 15 14 15 14 13 13 13 13 12 12 13 14 13 13 13 13 13 12 13 13 13 13 14 14 15 15 15 16 16 16 16 16 16 15 16 15 15 13 12 12 13 14
18 16 14 14 13 13 13 12 13 12 12 13 12 13 12 12 12 13 12 12 13 13 13 13 14 15 16 16 16 16 16 16 17 16 16 16 15 14 14 12 12 13 15
17 15 13 13 13 12 12 12 12 13 13 13 13 12 13 13 12 12 12 12 12 12 12 13 13 14 15 16 16 16 16 16 15 17 16 16 17 17 16 15 13 12 15
17 15 13 13 13 13 12 12 12 13 13 13 13 12 12 12 12 12 12 12 12 12 12 13 14 15 15 16 16 16 15 15 15 15 16 16 16 16 17 16 15 12 12
17 15 14 13 13 13 12 13 13 13 13 13 13 12 12 12 12 12 13 12 12 12 13 13 14 14 15 15 16 16 14 14 15 16 15 16 16 16 16 16 16 14 12
17 15 15 13 13 12 12 12 13 13 13 13 13 12 12 12 12 12 12 12 13 13 13 13 14 14 14 15 15 15 14 14 13 14 16 16 16 17 16 15 16 16 13
17 16 15 14 13 13 12 12 12 13 13 13 13 13 13 12 13 13 12 12 12 13 13 13 14 14 14 14 14 13 13 13 13 15 16 16 16 15 16 15 15 16 15
18 17 15 14 13 13 12 13 13 13 13 13 13 13 13 13 13 13 13 13 13 13 13 14 14 14 14 14 14 14 14 14 14 14 14 15 14 15 15 15 14 14 13
16 15 14 14 13 13 13 13 13 13 13 13 13 13 13 14 13 13 13 13 13 13 13 13 13 13 14 14 14 15 14 14 14 14 14 14 13 13 13 13 12 12 12
14 14 14 14 14 13 13 13 13 13 13 13 13 12 13 13 14 13 13 14 14 13 13 13 13 13 13 13 13 13 14 13 13 14 14 14 13 13 13 12 12 12 12
12 12 12 12 13 13 13 14 13 13 13 13 12 12 13 13 13 13 13 13 14 14 14 14 13 13 13 13 12 12 12 12 12 13 13 13 13 13 13 13 12 12 11
10 10 10 10 10 10 9 9 9 11 13 13 12 12 12 12 12 13 13 13 13 13 13 13 13 13 13 12 12 12 12 12 12 12 12 12 12 13 13 13 13 13 12
9 8 7 8 8 7 7 7 7 8 9 9 9 10 12 12 12 12 12 12 12 13 13 13 13 13 13 13 13 13 12 12 12 12 11 11 11 12 12 12 12 12 12
7 6 6 6 6 6 6 5 6 6 6 6 5 6 7 8 9 11 12 12 12 12 12 12 12 12 12 12 12 13 12 12 12 12 12 11 12 12 12 12 11 11 12
5 4 4 4 4 4 4 4 4 4 3 3 3 2 4 4 5 5 7 8 9 11 12 12 12 12 10 10 11 12 12 11 11 12 12 11 11 11 11 11 10 10 8
3 3 2 2 2 3 3 3 2 1 1 0 0 0 1 1 1 2 2 4 5 6 7 6 5 4 4 4 5 7 8 8 10 11 8 7 8 8 9 9 9 6 -1
3 2 1 0 0 1 2 1 1 -0 -1 -2 -2 -2 -2 -1 -1 0 1 1 1 1 1 1 -0 0 0 0 3 5 7 6 4 1 -1 -2 0 3 5 6 4 -1 -3
2 1 1 -1 -1 -1 0 -0 0 -1 -1 -2 -3 -3 -3 -3 -3 -2 -1 -1 -1 -1 -2 -2 -3 -4 -3 -3 -2 -0 1 1 1 -3 -3 -3 -2 -2 -3 -3 -3 -2 -3
0 -0 -0 -1 -2 -2 -2 -2 -1 -1 -2 -3 -4 -4 -4 -4 -4 -3 -3 -3 -3 -3 -3 -3 -4 -4 -4 -4 -5 -5 -4 -4 -4 -5 -5 -5 -4 -4 -3 -3 -4 -4 -4
-2 -1 -1 -2 -3 -3 -3 -3 -2 -2 -3 -3 -4 -4 -5 -5 -4 -4 -4 -4 -4 -4 -4 -4 -4 -4 -5 -5 -5 -5 -5 -5 -5 -6 -6 -6 -7 -7 -7 -6 -7 -7 -7
-3 -3 -3 -3 -4 -4 -5 -4 -4 -3 -3 -4 -4 -5 -5 -5 -6 -6 -5 -5 -5 -4 -4 -4 -4 -4 -4 -5 -5 -5 -6 -6 -6 -6 -6 -7 -8 -8 -9 -9 -8 -8 -8
-5 -5 -5 -5 -5 -5 -5 -5 -5 -5 -4 -5 -5 -5 -5 -5 -6 -7 -7 -7 -6 -6 -6 -6 -6 -6 -6 -6 -6 -7 -7 -7 -6 -7 -9 -9 -9 -10 -10 -10 -10 -10 -10

GFSMW_925_temp_087.txt.gz
Temp
24 22 20 18 16 15 16 15 14 14 14 14 14 14 14 14 13 14 14 13 14 14 14 14 14 13 13 13 13 13 13 13 13 13 12 12 12 12 12 12 12 12 12
23 22 19 16 15 15 15 14 14 14 14 14 14 14 14 14 14 13 13 14 13 14 14 13 13 13 12 13 13 14 13 13 13 15 14 14 12 12 12 12 12 12 12
23 23 19 16 15 15 14 13 14 14 13 13 13 14 14 14 14 14 14 13 13 13 14 14 13 12 12 13 13 13 14 13 13 13 16 15 16 14 13 12 12 12 12
22 22 20 17 15 15 13 13 14 14 13 13 13 13 14 14 14 14 14 14 14 13 13 13 13 12 12 12 13 13 14 14 13 13 14 15 15 17 15 12 12 12 12
23 22 19 17 15 13 12 13 13 13 13 13 13 13 13 13 14 14 13 12 12 12 12 12 12 12 12 12 13 13 13 14 14 14 13 14 14 14 15 16 14 12 12
22 20 18 16 16 13 12 12 12 13 12 12 13 13 13 13 13 13 12 12 11 12 12 12 13 12 12 13 13 13 13 14 14 14 15 15 15 15 15 16 15 14 14
21 18 17 17 16 13 13 12 12 13 12 12 13 13 13 13 13 13 13 12 11 11 11 11 12 12 13 13 13 13 14 15 15 14 15 15 16 17 15 16 15 15 14
19 18 17 17 16 14 13 12 12 14 12 12 13 13 13 13 13 13 13 12 12 11 12 12 12 13 13 13 13 14 14 15 15 15 15 15 15 16 16 16 15 15 15
17 19 17 17 15 14 13 12 13 13 12 12 13 13 13 13 12 13 13 12 12 12 13 12 12 12 12 12 13 13 14 14 15 15 15 15 15 16 15 15 15 17 16
17 18 18 16 15 15 13 12 12 13 12 12 13 13 12 13 13 13 12 12 12 12 12 12 13 12 11 11 12 12 13 15 14 13 15 14 15 15 14 14 13 14 15
16 16 16 16 15 14 12 12 12 12 12 12 13 12 12 12 12 12 12 12 12 12 12 12 12 12 12 11 11 11 11 12 13 15 15 14 14 14 14 13 13 12 12
15 15 15 15 14 13 12 12 12 12 12 12 13 13 12 12 12 12 12 12 12 12 12 12 12 12 12 12 11 11 12 12 12 13 14 14 15 13 13 13 13 12 12
14 14 14 13 13 13 12 12 12 12 12 12 13 13 13 12 12 12 13 12 13 12 12 12 12 12 12 12 12 12 12 13 14 13 13 13 13 12 12 12 12 12 12
11 12 13 13 13 13 12 12 13 13 13 13 13 13 13 13 12 13 13 13 13 12 12 12 12 12 12 12 12 12 12 12 13 13 13 13 12 12 12 11 12 12 12
8 9 9 10 12 12 12 13 12 13 13 13 13 13 13 13 13 13 12 12 11 12 12 12 12 12 12 12 12 12 13 13 13 13 13 12 13 13 13 12 13 12 12
7 7 7 7 8 8 9 8 9 12 12 12 12 12 12 12 12 12 12 12 12 12 11 11 12 11 12 13 13 13 13 13 13 12 12 12 12 13 13 13 13 13 13
5 5 5 5 5 5 6 6 6 6 7 7 7 9 10 10 11 11 12 12 12 12 12 12 12 12 10 11 11 12 12 11 12 12 12 12 12 12 12 12 12 12 12
3 3 3 3 3 3 3 3 3 3 3 3 3 4 5 5 7 8 9 9 10 10 10 10 10 9 7 7 10 11 11 11 10 10 10 10 10 10 10 10 10 9 8
1 1 1 2 2 1 1 1 1 1 1 0 1 1 2 2 3 3 3 4 5 5 4 3 3 3 3 5 6 7 8 8 7 6 6 6 6 6 6 7 6 6 3
-0 -0 -1 -1 0 1 0 -0 -1 -1 -1 -1 -1 -1 -0 0 0 0 0 0 1 0 0 -0 -0 -0 0 2 4 6 6 5 2 0 -1 -1 1 3 5 5 4 1 -1
-1 -1 -2 -2 -2 -0 -0 -0 -1 -2 -2 -2 -2 -2 -2 -1 -1 -1 -1 -1 -1 -2 -2 -2 -3 -3 -2 -2 1 2 2 -0 -2 -4 -4 -4 -4 -2 -0 1 -0 -3 -3
-2 -2 -3 -3 -3 -3 -1 -1 -2 -2 -3 -3 -3 -3 -3 -3 -2 -2 -2 -2 -2 -3 -3 -3 -4 -4 -5 -5 -4 -3 -2 -3 -4 -5 -6 -6 -6 -5 -4 -4 -4 -3 -3
-3 -3 -3 -4 -4 -4 -4 -2 -3 -3 -4 -4 -4 -4 -4 -4 -3 -3 -3 -3 -3 -3 -3 -3 -4 -4 -5 -5 -6 -6 -5 -6 -6 -6 -7 -6 -5 -4 -4 -4 -4 -4 -6
-3 -3 -4 -4 -5 -5 -5 -4 -3 -4 -4 -4 -4 -4 -4 -4 -4 -4 -4 -4 -4 -3 -3 -3 -4 -4 -4 -5 -6 -6 -6 -6 -6 -6 -5 -6 -6 -7 -7 -7 -7 -8 -8
-5 -5 -5 -5 -5 -5 -6 -6 -5 -4 -4 -4 -5 -5 -5 -5 -6 -6 -5 -5 -6 -5 -5 -5 -5 -5 -5 -6 -6 -6 -6 -7 -7 -7 -7 -7 -7 -7 -8 -8 -9 -9 -8
-6 -6 -6 -6 -6 -6 -7 -7 -6 -5 -5 -5 -5 -6 -6 -6 -6 -6 -7 -8 -7 -7 -7 -7 -7 -7 -7 -7 -7 -8 -6 -5 -6 -7 -8 -8 -9 -9 -9 -9 -10 -10 -10